{"data":{"norad_id":53529,"epoch":"2026-09-20T13:45:27.464256Z","epoch_age_seconds":71906,"freshness":"FRESH","line1":"1 53529U 22101C   26263.57323454  .00012803  00000+0  64146-3 0  9999","line2":"2 53529  53.2132 271.4729 0002451  13.5889 346.5173 15.17717908225699","mean_motion":15.17717908,"eccentricity":0.0002451,"inclination_deg":53.2132,"raan_deg":271.4729,"arg_perigee_deg":13.5889,"mean_anomaly_deg":346.5173,"bstar":0.00064146,"rev_number":22569,"period_min":94.87929162657,"perigee_km":511.05058615809,"apogee_km":514.428493838,"semimajor_km":6890.876539998,"source":"CELESTRAK","updated_at":"2026-09-21T09:00:32.898197Z"}}